Regional Weather Roundup
Issued by NWS

Home | Current Version | Previous Version | Text Only | Print | Product List | Glossary Off
Versions: 1 2 3 4 5 6 7 8 9 10 11 12 13 14 15 16 17 18 19 20 21 22 23 24 25 26 27 28 29 30 31 32 33 34 35 36 37 38 39 40 41 42 43 44 45 46 47 48 49 50

000
ASUS43 KLMK 220602
RWRKY
KENTUCKY REGIONAL WEATHER ROUNDUP
NATIONAL WEATHER SERVICE LOUISVILLE KY
100 AM EST WED FEB 22 2017

NOTE "FAIR" INDICATES FEW OR NO CLOUDS BELOW 12,000 FEET
WITH NO SIGNIFICANT WEATHER AND/OR OBSTRUCTIONS TO VISIBILITY.

KYZ001>023-026-027-061>063-070>075-220700-
WESTERN AND SOUTH CENTRAL KENTUCKY

CITY           SKY/WX    TMP DP  RH WIND       PRES   REMARKS
PADUCAH        CLOUDY    58  56  93 CALM      29.90S
HENDERSON      CLOUDY    57  52  82 CALM      29.90R
OWENSBORO      CLOUDY    58  56  93 S13       29.91F
HOPKINSVILLE   CLOUDY    58  58 100 SE5       29.92F
BOWLING GREEN  LGT RAIN  57  55  93 CALM      29.95S FOG
GLASGOW        NOT AVBL
$$

KYZ024-025-028>034-038-045-046-053-220700-
NORTH CENTRAL KENTUCKY

CITY           SKY/WX    TMP DP  RH WIND       PRES   REMARKS
LOUISVILLE/SDF CLOUDY    60  54  80 S5        29.93F
LOUISVILLE/LOU CLOUDY    60  54  80 S5        29.94F
FORT KNOX      CLOUDY    56  56  99 SE10      29.91F
$$

KYZ035>037-039>044-047>052-055>060-089>105-220700-
NORTHEAST KENTUCKY

CITY           SKY/WX    TMP DP  RH WIND       PRES   REMARKS
LEXINGTON      LGT RAIN  57  55  93 SE3       29.96F FOG
COVINGTON      LGT RAIN  55  55 100 S6        29.95F VSB 1
FRANKFORT      CLOUDY    57  54  89 CALM      29.95F FOG
$$

KYZ054-064>069-076>088-106>120-220700-
SOUTHEAST KENTUCKY

CITY           SKY/WX    TMP DP  RH WIND       PRES   REMARKS
JACKSON        LGT RAIN  58  50  75 W6        29.99R
LONDON         LGT RAIN  56  52  86 CALM      29.98S
SOMERSET       RAIN      54  54 100 CALM      29.98S
MIDDLESBORO    LGT RAIN  55  54  95 CALM      29.98F
MONTICELLO     LGT RAIN  54  53  97 VRB3      29.99S
$$





USA.gov is the U.S. government's official web portal to all federal, state and local government web resources and services.